Аэропорт
Магадан (UHMM)

 UHMM / GDX
ЗЦ Хабаровск
Магадан (UHMM)
Магадан (UHMM)
 59.91100, 150.72000  / 574 ft

 UHMM 240530Z 10006MPS 9999 -SHRA SCT013 OVC019CB 05/03 Q1002 R10/290250 NOSIG RMK MT OBSC QFE737

UHMM_AIP_0217
показать схемы
Название сценария Тип сценария Flight Simulator 9 Flight Simulator X Prepar3D v2 Prepar3D v3 Prepar3D v4 xPlane
"Welcome to Kolyma" UHMM for P3Dv4 by Shestenko Sergey Vladimirovich платный
uhmm-scenery-fs9-0811 бесплатный
UHMM_FSX_1.01 Andrew Bolowin бесплатный


2019 © VATRUS division (Privacy Policy)